Weather History for Rexburg, ID

Change the Weather History Date:

Saturday, January 5, 2013

  Actual Average Record
Temperature  
Mean Temperature 4 °F 20 °F  
Max Temperature 17 °F 28 °F 39 °F (2008)
Min Temperature -9 °F 12 °F -17 °F (2004)
Degree Days  
Heating Degree Days 61 45  
Month to date heating degree days 308 225  
Since 1 July heating degree days 3181 3607  
Cooling Degree Days 0 0  
Month to date cooling degree days 0 0  
Year to date cooling degree days 0 0  
Moisture  
Dew Point -5 °F    
Average Humidity 73    
Maximum Humidity 91    
Minimum Humidity 54    
Precipitation  
Precipitation 0.00 in 0.03 in 0.22 in (2008)
Month to date precipitation T 0.16  
Year to date precipitation T 0.16  
Sea Level Pressure  
Sea Level Pressure 30.60 in    
Wind  
Wind Speed 2 mph (NE)    
Max Wind Speed 9 mph    
Max Gust Speed 12 mph    
Visibility 9 miles    
Events      
T = Trace of Precipitation, MM = Missing Value Source: NWS Daily Summary

Daily Weather History Graph

Daily Weather History Graph

Search for Another Location

Airport:

Trip Planner

Search our weather history database for the weather conditions in past years. The results will help you decide how hot, cold, wet, or windy it might be!

Date:

Astronomy

Jan. 05, 2013 Rise Set
Actual Time 8:01 AM MST 5:04 PM MST
Civil Twilight 7:28 AM MST 5:37 PM MST
Nautical Twilight 6:52 AM MST 6:13 PM MST
Astronomical Twilight 6:17 AM MST 6:48 PM MST
Moon 1:05 AM MST (1/5) 12:02 PM MST (1/5)
Length of Visible Light 10h 08m
Length of Day
9h 03m
Last Quarter, 43% of the Moon is Illuminated
Jan 5
Last Quarter
Jan 11
New
Jan 18
First Quarter
Jan 26
Full
Feb 3
Last Quarter

Hourly Weather History & Observations

Time (MST) Temp. Windchill Dew Point Humidity Pressure Visibility Wind Dir Wind Speed Gust Speed Precip Events Conditions
12:45 AM -5.8 °F -14.5 °F -9.4 °F 84% 30.34 in 4.0 mi East 3.5 mph - N/A   Partly Cloudy
12:53 AM -5.1 °F - -9.0 °F 83% 30.63 in 4.0 mi Calm Calm - N/A   Scattered Clouds
1:53 AM -7.1 °F -15.9 °F -11.0 °F 83% 30.63 in 10.0 mi NNE 3.5 mph - N/A   Clear
2:53 AM -7.1 °F -15.9 °F -9.9 °F 87% 30.65 in 6.0 mi East 3.5 mph - N/A   Clear
3:29 AM -5.8 °F -16.7 °F -9.4 °F 84% 30.37 in 10.0 mi ENE 4.6 mph - N/A   Scattered Clouds
3:53 AM -6.0 °F - -11.0 °F 79% 30.65 in 10.0 mi Calm Calm - N/A   Partly Cloudy
4:53 AM -8.0 °F - -11.0 °F 86% 30.67 in 7.0 mi Calm Calm - N/A   Scattered Clouds
5:43 AM -7.6 °F -16.5 °F -11.2 °F 84% 30.39 in 8.0 mi ENE 3.5 mph - N/A   Mostly Cloudy
5:50 AM -7.6 °F -18.8 °F -13.0 °F 77% 30.39 in 7.0 mi ENE 4.6 mph - N/A   Partly Cloudy
5:53 AM -7.1 °F -18.1 °F -11.9 °F 79% 30.69 in 8.0 mi ENE 4.6 mph - N/A   Partly Cloudy
6:53 AM -7.1 °F - -11.9 °F 79% 30.73 in 5.0 mi Calm Calm - N/A   Haze
7:53 AM -7.1 °F -18.1 °F -11.0 °F 83% 30.75 in 10.0 mi ENE 4.6 mph - N/A   Clear
8:53 AM -5.1 °F -15.8 °F -9.9 °F 80% 30.75 in 10.0 mi NE 4.6 mph - N/A   Clear
9:06 AM -4.0 °F -16.3 °F -9.4 °F 78% 30.41 in 10.0 mi NNE 5.8 mph - N/A   Partly Cloudy
9:53 AM -0.9 °F -8.9 °F -7.1 °F 75% 30.76 in 10.0 mi NE 3.5 mph - N/A   Clear
10:53 AM 3.9 °F -5.3 °F -2.9 °F 73% 30.75 in 10.0 mi NE 4.6 mph - N/A   Clear
11:53 AM 10.0 °F - -0.9 °F 61% 30.70 in 10.0 mi Calm Calm - 0.00 in   Clear
12:53 PM 12.9 °F - 1.0 °F 59% 30.66 in 10.0 mi Calm Calm - N/A   Clear
1:53 PM 12.9 °F 6.9 °F 3.0 °F 65% 30.65 in 10.0 mi WSW 3.5 mph - N/A   Clear
2:53 PM 15.1 °F - 3.9 °F 61% 30.63 in 10.0 mi Calm Calm - N/A   Clear
3:53 PM 17.1 °F - 3.9 °F 56% 30.61 in 10.0 mi Calm Calm - N/A   Clear
4:53 PM 15.1 °F - 3.9 °F 61% 30.62 in 10.0 mi Calm Calm - N/A   Clear
5:53 PM 9.0 °F 2.4 °F 1.9 °F 73% 30.63 in 10.0 mi NE 3.5 mph - N/A   Clear
6:53 PM 5.0 °F -4.1 °F -0.0 °F 80% 30.63 in 10.0 mi ENE 4.6 mph - N/A   Clear
7:53 PM 5.0 °F -2.1 °F -0.0 °F 80% 30.62 in 10.0 mi NE 3.5 mph - N/A   Clear
8:53 PM 5.0 °F -5.6 °F -0.0 °F 80% 30.59 in 10.0 mi ENE 5.8 mph - N/A   Clear
9:53 PM 3.0 °F - -2.0 °F 80% 30.58 in 10.0 mi Calm Calm - N/A   Clear
10:53 PM 3.0 °F - -2.0 °F 80% 30.55 in 10.0 mi Calm Calm - N/A   Clear
11:53 PM 1.9 °F - -2.0 °F 83% 30.51 in 10.0 mi Calm Calm - N/A   Clear